When you browse on this site, cookies collect data to enhance your experience and personalize the content and advertising you see.
Visit our Privacy Policy to learn more. By continuing to use the site, you agree to this use of cookies and data.
  • In Sweden
  • List of Countries
  • For 7 days
  • Water Temperature
  • Weather Map
  • Weather Widgets
  • user-avatar
    Login

    Hourly Weather Sydney

    Today, 22 October, Tuesday

    Time Temperature Precipitation Wind Pressure Humidity
    00:00 +15°C° 0 mm 1 mps 768 mmHg 72%
    01:00 +14°C° 0 mm 1 mps 768 mmHg 74%
    02:00 +14°C° 0 mm 1 mps 768 mmHg 75%
    03:00 +13°C° 0 mm 2 mps 768 mmHg 77%
    04:00 +13°C° 0 mm 1 mps 768 mmHg 77%
    05:00 +14°C° 0 mm 1 mps 768 mmHg 71%
    06:00 +15°C° 0 mm 2 mps 768 mmHg 65%
    07:00 +17°C° 0 mm 2 mps 768 mmHg 60%
    08:00 +20°C° 0 mm 2 mps 768 mmHg 49%
    09:00 +24°C° 0 mm 2 mps 768 mmHg 38%
    10:00 +27°C° 0 mm 2 mps 768 mmHg 28%
    11:00 +28°C° 0 mm 3 mps 767 mmHg 28%
    12:00 +29°C° 0 mm 4 mps 766 mmHg 27%
    13:00 +30°C° 0 mm 5 mps 766 mmHg 26%
    14:00 +28°C° 0 mm 5 mps 766 mmHg 31%
    15:00 +27°C° 0 mm 5 mps 765 mmHg 36%
    16:00 +26°C° 0 mm 5 mps 765 mmHg 41%
    17:00 +23°C° 0 mm 4 mps 766 mmHg 52%
    18:00 +21°C° 0 mm 4 mps 766 mmHg 62%
    19:00 +19°C° 0 mm 3 mps 767 mmHg 73%
    20:00 +18°C° 0 mm 3 mps 767 mmHg 77%
    21:00 +18°C° 0 mm 2 mps 768 mmHg 80%
    22:00 +17°C° 0 mm 2 mps 768 mmHg 83%
    23:00 +17°C° 0 mm 2 mps 768 mmHg 85%

    Tomorrow, 23 October, Wednesday

    Time Temperature Precipitation Wind Pressure Humidity
    00:00 +16°C° 0 mm 2 mps 767 mmHg 86%
    01:00 +16°C° 0 mm 1 mps 767 mmHg 87%
    02:00 +16°C° 0 mm 1 mps 767 mmHg 88%
    03:00 +15°C° 0 mm 2 mps 766 mmHg 89%
    04:00 +15°C° 0 mm 2 mps 766 mmHg 89%
    05:00 +16°C° 0 mm 2 mps 766 mmHg 85%
    06:00 +17°C° 0 mm 2 mps 767 mmHg 80%
    07:00 +18°C° 0 mm 2 mps 767 mmHg 75%
    08:00 +21°C° 0 mm 2 mps 766 mmHg 62%
    09:00 +25°C° 0 mm 3 mps 766 mmHg 49%
    10:00 +28°C° 0 mm 3 mps 766 mmHg 36%
    11:00 +29°C° 0 mm 4 mps 765 mmHg 32%
    12:00 +32°C° 0 mm 5 mps 764 mmHg 28%
    13:00 +34°C° 0 mm 5 mps 763 mmHg 25%
    14:00 +33°C° 0 mm 5 mps 763 mmHg 27%
    15:00 +32°C° 0 mm 5 mps 763 mmHg 29%
    16:00 +32°C° 0 mm 5 mps 762 mmHg 31%
    17:00 +29°C° 0 mm 5 mps 762 mmHg 38%
    18:00 +27°C° 0 mm 5 mps 762 mmHg 45%
    19:00 +25°C° 0 mm 5 mps 763 mmHg 53%
    20:00 +23°C° 0 mm 4 mps 763 mmHg 55%
    21:00 +22°C° 0 mm 3 mps 763 mmHg 57%
    22:00 +22°C° 0 mm 3 mps 763 mmHg 59%
    23:00 +21°C° 0 mm 3 mps 763 mmHg 60%

    Day after tomorrow, 24 October, Thursday

    Time Temperature Precipitation Wind Pressure Humidity
    00:00 +20°C° 0 mm 2 mps 763 mmHg 60%
    01:00 +19°C° 0 mm 2 mps 762 mmHg 61%
    02:00 +18°C° 0 mm 2 mps 762 mmHg 62%
    03:00 +18°C° 0 mm 2 mps 762 mmHg 64%
    04:00 +18°C° 0 mm 2 mps 762 mmHg 65%
    05:00 +19°C° 0 mm 2 mps 762 mmHg 62%
    06:00 +20°C° 0 mm 2 mps 763 mmHg 58%
    07:00 +23°C° 0 mm 1 mps 763 mmHg 55%
    08:00 +26°C° 0 mm 1 mps 763 mmHg 45%
    09:00 +29°C° 0 mm 1 mps 763 mmHg 35%
    10:00 +32°C° 0 mm 1 mps 762 mmHg 25%
    11:00 +34°C° 0 mm 2 mps 762 mmHg 24%
    12:00 +35°C° 0 mm 3 mps 762 mmHg 22%
    13:00 +36°C° 0 mm 3 mps 761 mmHg 20%
    14:00 +35°C° 0 mm 3 mps 761 mmHg 22%
    15:00 +34°C° 0 mm 3 mps 760 mmHg 24%
    16:00 +33°C° 0 mm 3 mps 760 mmHg 26%
    17:00 +30°C° 0 mm 3 mps 760 mmHg 31%
    18:00 +28°C° 0 mm 4 mps 760 mmHg 35%
    19:00 +26°C° 0 mm 4 mps 761 mmHg 40%
    20:00 +25°C° 0 mm 4 mps 761 mmHg 43%
    21:00 +23°C° 0 mm 4 mps 761 mmHg 46%
    22:00 +22°C° 0 mm 3 mps 761 mmHg 49%
    23:00 +22°C° 0 mm 3 mps 760 mmHg 49%

    25 October, Friday

    Time Temperature Precipitation Wind Pressure Humidity
    00:00 +21°C° 0 mm 4 mps 760 mmHg 49%
    01:00 +21°C° 0 mm 4 mps 759 mmHg 49%
    02:00 +21°C° 0 mm 4 mps 759 mmHg 49%
    03:00 +20°C° 0 mm 4 mps 759 mmHg 48%
    04:00 +20°C° 0 mm 4 mps 759 mmHg 48%
    05:00 +21°C° 0 mm 4 mps 759 mmHg 45%
    06:00 +22°C° 0 mm 5 mps 759 mmHg 41%
    07:00 +25°C° 0 mm 5 mps 759 mmHg 38%
    08:00 +28°C° 0 mm 5 mps 759 mmHg 31%
    09:00 +32°C° 0 mm 5 mps 759 mmHg 25%
    10:00 +35°C° 0 mm 5 mps 759 mmHg 19%
    11:00 +36°C° 0 mm 5 mps 758 mmHg 19%
    12:00 +36°C° 0 mm 5 mps 757 mmHg 18%
    13:00 +37°C° 0 mm 5 mps 756 mmHg 18%
    14:00 +36°C° 0 mm 5 mps 756 mmHg 20%
    15:00 +35°C° 0 mm 6 mps 755 mmHg 22%
    16:00 +34°C° 0 mm 6 mps 755 mmHg 24%
    17:00 +32°C° 0 mm 6 mps 755 mmHg 29%
    18:00 +30°C° 0 mm 6 mps 755 mmHg 34%
    19:00 +28°C° 0 mm 6 mps 755 mmHg 39%
    20:00 +27°C° 0 mm 5 mps 755 mmHg 40%
    21:00 +26°C° 0 mm 4 mps 755 mmHg 40%
    22:00 +26°C° 0 mm 2 mps 755 mmHg 40%
    23:00 +26°C° 0 mm 3 mps 754 mmHg 39%

    26 October, Saturday

    Time Temperature Precipitation Wind Pressure Humidity
    00:00 +25°C° 0 mm 4 mps 753 mmHg 38%
    01:00 +25°C° 0 mm 5 mps 753 mmHg 37%
    02:00 +25°C° 0 mm 5 mps 752 mmHg 35%
    03:00 +24°C° 0 mm 6 mps 752 mmHg 33%
    04:00 +24°C° 0 mm 6 mps 752 mmHg 32%
    05:00 +26°C° 0 mm 6 mps 752 mmHg 30%
    06:00 +27°C° 0 mm 7 mps 752 mmHg 28%
    07:00 +28°C° 0 mm 8 mps 752 mmHg 27%
    08:00 +29°C° 0 mm 8 mps 752 mmHg 25%
    09:00 +32°C° 0 mm 8 mps 752 mmHg 24%
    10:00 +34°C° 0 mm 8 mps 752 mmHg 23%
    11:00 +34°C° 0 mm 8 mps 751 mmHg 23%
    12:00 +33°C° 0 mm 9 mps 751 mmHg 24%
    13:00 +33°C° 0 mm 9 mps 751 mmHg 25%
    14:00 +32°C° 0 mm 9 mps 751 mmHg 22%
    15:00 +32°C° 0 mm 8 mps 751 mmHg 18%
    16:00 +32°C° 0 mm 8 mps 751 mmHg 15%
    17:00 +28°C° 0 mm 8 mps 752 mmHg 19%
    18:00 +26°C° 0 mm 7 mps 754 mmHg 22%
    19:00 +22°C° 0 mm 6 mps 755 mmHg 25%
    20:00 +21°C° 0 mm 6 mps 756 mmHg 28%
    21:00 +19°C° 0 mm 6 mps 757 mmHg 31%
    22:00 +17°C° 0 mm 6 mps 757 mmHg 33%
    23:00 +16°C° 0 mm 5 mps 758 mmHg 35%

    27 October, Sunday

    Time Temperature Precipitation Wind Pressure Humidity
    00:00 +15°C° 0 mm 4 mps 758 mmHg 36%
    01:00 +14°C° 0 mm 3 mps 758 mmHg 38%
    02:00 +14°C° 0 mm 3 mps 758 mmHg 40%
    03:00 +13°C° 0 mm 3 mps 759 mmHg 42%
    04:00 +12°C° 0 mm 3 mps 759 mmHg 44%
    05:00 +14°C° 0 mm 4 mps 759 mmHg 41%
    06:00 +15°C° 0 mm 4 mps 760 mmHg 38%
    07:00 +17°C° 0 mm 4 mps 760 mmHg 35%
    08:00 +19°C° 0 mm 4 mps 760 mmHg 31%
    09:00 +21°C° 0 mm 3 mps 760 mmHg 27%
    10:00 +24°C° 0 mm 3 mps 760 mmHg 22%
    11:00 +25°C° 0 mm 4 mps 759 mmHg 21%
    12:00 +26°C° 0 mm 4 mps 759 mmHg 20%
    13:00 +27°C° 0 mm 5 mps 759 mmHg 19%
    14:00 +25°C° 0 mm 5 mps 759 mmHg 25%
    15:00 +22°C° 0 mm 5 mps 759 mmHg 32%
    16:00 +21°C° 0 mm 5 mps 759 mmHg 38%
    17:00 +19°C° 0 mm 5 mps 760 mmHg 47%
    18:00 +18°C° 0 mm 4 mps 761 mmHg 56%
    19:00 +16°C° 0 mm 3 mps 762 mmHg 64%
    20:00 +16°C° 0 mm 3 mps 762 mmHg 67%
    21:00 +16°C° 0 mm 3 mps 763 mmHg 70%
    22:00 +15°C° 0 mm 2 mps 763 mmHg 73%
    23:00 +15°C° 0.1 mm 2 mps 763 mmHg 75%

    28 October, Monday

    Time Temperature Precipitation Wind Pressure Humidity
    00:00 +14°C° 0.1 mm 1 mps 763 mmHg 77%
    01:00 +14°C° 0.1 mm 1 mps 763 mmHg 79%
    02:00 +14°C° 0.1 mm 1 mps 763 mmHg 79%
    03:00 +13°C° 0.1 mm 1 mps 763 mmHg 80%
    04:00 +13°C° 0.1 mm 1 mps 764 mmHg 81%
    05:00 +14°C° 0.1 mm 1 mps 764 mmHg 75%
    06:00 +15°C° 0.1 mm 2 mps 764 mmHg 69%
    07:00 +16°C° 0.1 mm 2 mps 765 mmHg 64%
    08:00 +18°C° 0.2 mm 3 mps 765 mmHg 59%
    09:00 +19°C° 0.2 mm 4 mps 765 mmHg 55%
    10:00 +21°C° 0.2 mm 5 mps 765 mmHg 51%
    11:00 +21°C° 0.2 mm 5 mps 765 mmHg 52%
    12:00 +20°C° 0.2 mm 6 mps 766 mmHg 53%
    13:00 +20°C° 0.2 mm 7 mps 766 mmHg 55%
    14:00 +20°C° 0 mm 7 mps 766 mmHg 55%
    15:00 +19°C° 0 mm 6 mps 766 mmHg 56%
    16:00 +19°C° 0 mm 6 mps 766 mmHg 56%
    17:00 +17°C° 0 mm 5 mps 767 mmHg 60%
    18:00 +16°C° 0 mm 5 mps 767 mmHg 64%
    19:00 +15°C° 0 mm 4 mps 768 mmHg 68%
    20:00 +14°C° 0 mm 4 mps 768 mmHg 69%
    21:00 +14°C° 0 mm 3 mps 769 mmHg 70%
    22:00 +14°C° 0 mm 3 mps 769 mmHg 72%
    23:00 +15°C° 0 mm 2 mps 769 mmHg 70%
    Show more